Sheboygan Falls, WI

5:51 PM CST on February 12, 2016 (GMT -0600)
Sheboygan County Memorial

Weather History for KSBM - November, 2012

Change the Weather History Date:

Thursday, November 1, 2012

  Actual Average Record
Temperature  
Mean Temperature 40 °F -  
Max Temperature 48 °F - - ()
Min Temperature 32 °F - - ()
Degree Days  
Heating Degree Days 25    
Moisture  
Dew Point 24 °F    
Average Humidity 54    
Maximum Humidity 73    
Minimum Humidity 29    
Precipitation  
Precipitation 0.00 in - - ()
Sea Level Pressure  
Sea Level Pressure 29.86 in    
Wind  
Wind Speed 9 mph (NW)    
Max Wind Speed 14 mph    
Max Gust Speed 22 mph    
Visibility 10 miles    
Events      
T = Trace of Precipitation, MM = Missing Value Source: NWS Daily Summary

Daily Weather History Graph

Daily Weather History Graph

Search for Another Location

Airport or City:

Trip Planner

Search our weather history database for the weather conditions in past years. The results will help you decide how hot, cold, wet, or windy it might be!

Date:

Astronomy

Nov. 01, 2012 Rise Set
Actual Time 7:28 AM CDT 5:41 PM CDT
Civil Twilight 6:58 AM CDT 6:11 PM CDT
Nautical Twilight 6:24 AM CDT 6:45 PM CDT
Astronomical Twilight 5:50 AM CDT 7:18 PM CDT
Moon 7:33 PM CDT (11/1) 10:04 AM CDT (11/1)
Length of Visible Light 11h 13m
Length of Day
10h 13m
Waning Gibbous, 93% of the Moon is Illuminated
Nov 1
Waning Gibbous
Nov 6
Last Quarter
Nov 13
New
Nov 20
First Quarter
Nov 28
Full

Hourly Weather History & Observations

Time (CDT) Temp. Windchill Dew Point Humidity Pressure Visibility Wind Dir Wind Speed Gust Speed Precip Events Conditions
12:53 AM 35.1 °F 26.9 °F 19.9 °F 54% 29.83 in 10.0 mi NW 11.5 mph - N/A   Clear
1:53 AM 34.0 °F 27.2 °F 19.0 °F 54% 29.83 in 10.0 mi NW 8.1 mph - N/A   Clear
2:53 AM 35.1 °F 28.6 °F 18.0 °F 50% 29.83 in 10.0 mi NW 8.1 mph - N/A   Clear
3:53 AM 32.0 °F 27.5 °F 17.1 °F 54% 29.83 in 10.0 mi WNW 4.6 mph - N/A   Partly Cloudy
4:53 AM 32.0 °F 27.5 °F 19.9 °F 61% 29.83 in 10.0 mi WNW 4.6 mph - N/A   Clear
5:53 AM 33.1 °F 26.9 °F 21.9 °F 64% 29.83 in 10.0 mi WNW 6.9 mph - N/A   Overcast
7:53 AM 36.0 °F 31.1 °F 21.0 °F 55% 29.85 in 10.0 mi WNW 5.8 mph - N/A   Overcast
8:53 AM 39.9 °F 35.1 °F 21.9 °F 49% 29.85 in 10.0 mi WNW 6.9 mph - N/A   Mostly Cloudy
9:53 AM 45.0 °F 40.1 °F 19.9 °F 37% 29.85 in 10.0 mi NW 9.2 mph - N/A   Partly Cloudy
10:53 AM 45.0 °F 40.1 °F 19.0 °F 36% 29.85 in 10.0 mi NW 9.2 mph - N/A   Overcast
11:53 AM 48.9 °F - 18.0 °F 29% 29.84 in 10.0 mi WNW 6.9 mph - N/A   Scattered Clouds
12:53 PM 46.9 °F - 19.9 °F 34% 29.83 in 10.0 mi NW 9.2 mph - N/A   Overcast
1:53 PM 44.1 °F 38.1 °F 24.1 °F 45% 29.83 in 10.0 mi WNW 11.5 mph - N/A   Overcast
2:53 PM 46.0 °F 40.6 °F 28.0 °F 50% 29.83 in 10.0 mi WNW 11.5 mph - N/A   Overcast
3:53 PM 46.9 °F - 30.0 °F 52% 29.83 in 10.0 mi NW 8.1 mph - N/A   Overcast
4:53 PM 46.0 °F 39.9 °F 32.0 °F 58% 29.85 in 10.0 mi NW 13.8 mph 21.9 mph N/A   Overcast
5:53 PM 45.0 °F 38.9 °F 30.9 °F 58% 29.86 in 10.0 mi NNW 12.7 mph - N/A   Overcast
6:53 PM 44.1 °F 40.1 °F 30.9 °F 60% 29.87 in 10.0 mi NNW 6.9 mph - N/A   Overcast
7:53 PM 44.1 °F 38.6 °F 30.9 °F 60% 29.88 in 10.0 mi NW 10.4 mph 18.4 mph N/A   Overcast
8:53 PM 42.1 °F 36.1 °F 30.9 °F 65% 29.90 in 10.0 mi North 10.4 mph - N/A   Overcast
9:53 PM 39.9 °F 33.9 °F 30.9 °F 70% 29.92 in 10.0 mi NNW 9.2 mph - N/A   Partly Cloudy
10:53 PM 37.9 °F 30.0 °F 30.0 °F 73% 29.92 in 10.0 mi NNW 12.7 mph - N/A   Clear
11:53 PM 37.0 °F 28.9 °F 28.0 °F 70% 29.94 in 10.0 mi NNW 12.7 mph - N/A   Clear